Regional Weather Roundup
Issued by NWS Grand Forks, ND

Home | Current Version | Previous Version | Graphics & Text | Print | Product List | Glossary On
Versions: 1 2 3 4 5 6 7 8 9 10 11 12 13 14 15 16 17 18 19 20 21 22 23 24 25 26 27 28 29 30 31 32 33 34 35 36 37 38 39 40 41 42 43 44 45 46 47 48 49 50
000
ASUS43 KFGF 072131
RWRFGF
PRAIRIE TO PINES  WEATHER ROUNDUP
NATIONAL WEATHER SERVICE EASTERN NORTH DAKOTA/GRAND FORKS ND
400 PM CDT TUE JUL 07 2015

 **SATELLITE DATA USED TO AUGMENT SKY COVER AT AUTOMATED STATIONS**
 *****  WEATHER ACROSS EASTERN NORTH DAKOTA  *****

CITY           SKY/WX    TMP DP  RH WIND       PRES   REMARKS
GRAND FORKS    MOSUNNY   73  44  35 SW10      30.08F
GRAND FRKS AFB SUNNY     72  46  39 S10       30.09F
GRAND FRKS NWS   N/A     72 N/A N/A SW9         N/A
DEVILS LAKE    MOSUNNY   72  48  43 SW10      30.06F
FARGO          SUNNY     72  44  36 S10       30.11F
WAHPETON ARPT  CLEAR     70  41  35 S10G16    30.14S
$$

 ***** WEATHER ACROSS CENTRAL AND WESTERN NORTH DAKOTA  *****

CITY           SKY/WX    TMP DP  RH WIND       PRES   REMARKS
BISMARCK       MOSUNNY   75  56  51 S12G20    30.06F
MINOT          MOSUNNY   72  54  53 S13       30.02F
JAMESTOWN      SUNNY     71  46  40 S13       30.10F
MINOT AFB      MOSUNNY   75  59  57 S10       30.01F
GARRISON         N/A     74  59  59 S14       30.04F
WILLISTON      MOSUNNY   81  43  26 VRB5      29.99F
DICKINSON      PTSUNNY   76  59  55 SE18      29.99F
HETTINGER      MOSUNNY   76  57  51 SE15      30.02F
$$

 *****  OTHER AIRPORT OBSERVATIONS IN OUR AREA  *****

CITY           SKY/WX    TMP DP  RH WIND       PRES   REMARKS
WALHALLA       FAIR      72  50  46 MISG      30.05F
GRAFTON AIRPOR FAIR      72  48  43 SW8G16    30.08F
VALLEY CITY AR FAIR      72  43  35 S12G18    30.11F
CANDO          FAIR      72  48  43 S12G17    30.06F
CAVALIER APRT  FAIR      72  46  40 S12G20    30.06F
GWINNER        FAIR      73  45  35 SE12      30.13S
SHEYENNE NWR     N/A     72  47  40 S7        29.95
ROLLA            N/A     68  50  52 SW14      30.05F
 ***** THE ABOVE OBSERVATIONS ARE NON NWS ARE NOT QUALITY
       CONTROLLED AND MAY MIS-REPORT RAIN FOR SNOW...
$$

  *****  WEATHER ACROSS NORTHERN MINNESOTA  *****

CITY           SKY/WX    TMP DP  RH WIND       PRES   REMARKS
FLAG ISLAND    SUNNY     70  52  52 S12       30.05S
WARROAD        SUNNY     70  54  56 W7        30.09S
ROSEAU         SUNNY     70  52  52 SW9       30.09F
HALLOCK        SUNNY     72  48  43 S12G17    30.07F
THF RVR FALLS  SUNNY     70  46  43 SW12      30.11F
BAUDETTE       SUNNY     71  46  40 S5        30.08F
WASKISH        SUNNY     70  50  49 SW9       30.11S
CROOKSTON      SUNNY     72  46  40 SW9       30.11S
STEPHEN NDAWN    N/A     72  52  49 SW8         N/A
GREENBUSH NDAW   N/A     70  46  43 S9          N/A
$$
  *****  WEATHER ACROSS CENTRAL AND WEST MINNESOTA  *****

CITY           SKY/WX    TMP DP  RH WIND       PRES   REMARKS
FOSSTON        SUNNY     72  46  40 CALM      30.12F
BEMIDJI        SUNNY     70  45  40 CALM      30.11F
PARK RAPIDS    SUNNY     72  41  32 VRB3      30.13F
ELBOW LAKE     FAIR      69  45  42 SE7       30.14S
WADENA         SUNNY     70  43  37 S3        30.13F
DETROIT LAKES  SUNNY     70  37  30 SW5       30.14F
MOORHEAD       SUNNY     72  41  33 S6        30.13S
FERGUS FALLS   SUNNY     70  45  40 S5        30.13S
MORRIS MN      MOSUNNY   70  48  46 S3        30.14F
STAPLES        SUNNY     72  39  30 CALM      30.13F
$$
  *****  WEATHER ELSEWHERE ACROSS MINNESOTA  *****

CITY           SKY/WX    TMP DP  RH WIND       PRES   REMARKS
DULUTH         MOSUNNY   71  44  37 W7        30.11F
INTRNTL FALLS  SUNNY     72  40  31 W7        30.09S
ELY            SUNNY     70  39  32 W6        30.09F
CLOQUET        SUNNY     70  37  30 CALM      30.11F
WHEATON        SUNNY     68  45  42 W3        30.16S
BRAINERD       SUNNY     71  44  37 CALM      30.14F
HIBBING        MOSUNNY   71  43  36 W7        30.11F
ALEXANDRIA     SUNNY     68  44  42 NW6       30.16F
SAINT CLOUD    MOSUNNY   70  44  39 CALM      30.14S
MINNEAPOLIS    PTSUNNY   69  47  45 VRB6      30.14S
$$

  *****  WEATHER ACROSS SOUTH DAKOTA  *****

CITY           SKY/WX    TMP DP  RH WIND       PRES   REMARKS
SIOUX FALLS    PTSUNNY   69  48  47 E6        30.15F
BROOKINGS      SUNNY     66  46  48 S6        30.17F
WATERTOWN      SUNNY     68  45  43 SE9       30.15F
HURON          MOSUNNY   68  44  42 S7        30.13F
SISSETON         N/A     71  45  39 S6        30.13F
ABERDEEN       SUNNY     73  44  35 S12       30.12F
MITCHELL       MOSUNNY   71  48  43 E7        30.15F
PIERRE         MOSUNNY   74  57  55 SE16G22   30.07F
MOBRIDGE       MOSUNNY   77  56  48 SE16      30.06F
RAPID CITY     SUNNY     75  59  57 S20G25    30.05F
$$

  *****  SOME WEATHER IN NEARBY STATES *****

CITY           SKY/WX    TMP DP  RH WIND       PRES   REMARKS
GLASGOW MT     CLOUDY    79  45  29 W7        29.98F
GREAT FALLS MT PTSUNNY   65  53  65 N12       30.15S
CHEYENNE WY    CLOUDY    63  52  67 S15G22    30.17F HAZE
SCOTTSBLUFF NE PTSUNNY   71  53  52 S15G25    30.11F
OMAHA NE       MOSUNNY   73  51  46 VRB6      30.11F
DES MOINES IA  PTSUNNY   73  50  44 N7        30.09S
DAVENPORT IA   PTSUNNY   72  56  57 NE10      30.06R
CHICAGO IL     MOSUNNY   66  47  50 NE17      30.05R
EAU CLAIRE WI  MOSUNNY   71  48  43 VRB5      30.10F
LA CROSSE WI   MOSUNNY   70  47  43 N10       30.10F
$$

  *****  SOME NATIONAL WEATHER *****

CITY           SKY/WX    TMP DP  RH WIND       PRES   REMARKS
LA GUARDIA NY  MOSUNNY   85  70  60 S13       29.94F
RALEIGH NC     MOSUNNY   90  70  51 SW10      30.07F HX  95
ATLANTA GA     MOSUNNY   88  68  51 SW7       30.13F HX  91
NEW ORLEANS LA MOSUNNY   92  74  55 S15       30.09F HX 101
OKLAHOMA CITY  LGT RAIN  69  68  96 NE15      29.99F FOG
ALBUQUERQUE NM PTSUNNY   78  54  43 SE8       30.14F
SALT LAKE CITY CLOUDY    83  52  34 W12       29.98F
LOS ANGELES CA PTSUNNY   70  61  73 SW14      29.94F
BOISE ID       MOSUNNY   93  49  22 N8        29.91F HX  90
SEATTLE WA     PTSUNNY   74  55  51 NW6       29.99F
$$

*** WEATHER ACROSS MANITOBA...SASKATCHEWAN AND ONTARIO ***
                ***ONTARIO***

CITY           SKY/WX    TMP DP  RH WIND       PRES   REMARKS
GERALDTON      MOSUNNY   72  50  46 NW7       29.97F
THUNDER BAY    MOSUNNY   73  46  38 W9        30.03S
SIOUX LOOKOUT  MOSUNNY   72  46  40 W10       30.04F
TORONTO        LGT RAIN  72  70  94 SW13      29.82S
BIG TROUT LK   SUNNY     75  46  35 W15G21    29.82F
PICKLE LAKE    PTSUNNY   75  45  33 W9G22     29.95F
DRYDEN         SUNNY     72  41  33 W14G20    30.05F
KENORA         MOSUNNY   70  50  49 SW10      30.06F
$$
                *** MANITOBA***

CITY           SKY/WX    TMP DP  RH WIND       PRES   REMARKS
BRANDON        CLOUDY    72  54  53 S14       30.01F
DAUPHIN        SUNNY     75  52  43 SW17G29   29.90F
ISLAND LAKE    PTSUNNY   73  46  38 SW16G23   29.81F
PILOT MOUND      N/A     70  50  49 SW14G20     N/A
THE PAS        PTSUNNY   66  46  48 N12       29.90R
THOMPSON       PTSUNNY   55  45  67 N10G23    29.85R
WINNIPEG       PTSUNNY   73  48  40 S15G22    30.04F
LYNN LAKE      PTSUNNY   59  36  41 NW15G23   29.87S
CHURCHILL      CLOUDY    48  45  87 NW15G21   29.70R
GILLAM         DRIZZLE   52  48  87 NW25G31   29.74R
$$
                ***SASKATCHEWAN***

CITY           SKY/WX    TMP DP  RH WIND       PRES   REMARKS
ESTEVAN        LGT RAIN  66  57  72 N10G22    29.98S
KINDERSLEY     MOSUNNY   66  48  52 N15       30.06F
LLOYDMINSTER   PTSUNNY   64  39  39 W7        30.09S
PRINCE ALBERT  PTSUNNY   63  45  51 N10G17    30.01S
REGINA         PTSUNNY   72  50  46 SW8       29.94F
YORKTON        MOSUNNY   68  48  49 SW12      29.93S
N. BATTLEFORD  PTSUNNY   63  41  45 NW13G20   30.08S
LA RONGE       PTSUNNY   64  39  39 NW14G21   29.98S SMOKE
SASKATOON      PTSUNNY   63  48  59 N14G22    30.05S
SWIFT CURRENT  PTSUNNY   75  45  33 NW17G28   30.01F
$$
NOTE: THESE ARE AUTOMATED STATIONS WITH LIMITED QUALITY CONTROL
      "FAIR" INDICATES FEW OR NO CLOUDS BELOW 12,000 FEET WITH NO
      SIGNIFICANT WEATHER AND/OR OBSTRUCTIONS TO VISIBILITY.
      SKY/WX - SKY CONDITION AND SIGNIFICANT WEATHER.
      TMP - AIR TEMPERATURE.    DP   - DEWPOINT TEMPERATURE.
      RH  - RELATIVE HUMIDITY.  PRES - PRESSURE.
      HX  - HEAT INDEX.         WCI  - WIND CHILL INDEX.
$


USA.gov is the U.S. government's official web portal to all federal, state and local government web resources and services.